EHI
0 0 0 0 0 0 0 0 0 0 0 0 0 0 0 0 0 0 0 0 0 0 0 0 0 0 0 0 0 0 0 0 0 0 0 0 0 0 0 0 0 0 0 0
0 0 0 0 0 0 0 0 0 0 0 0 0 0 0 0 0 0 0 0 0 0 0 0 0 0 0 0 0 0 0 0 0 0 0 0 0 0 0 0 0 0 0 0
0 0 0 0 0 0 0 0 0 0 0 0 0 0 0 0 0 0 0 0 0 0 0 0 0 0 0 0 0 0 0 0 0 0 0 0 0 0 0 0 0 0 0 0
0 0 0 0 0 0 0 0 0 0 0 0 0 0 0 0 0 0 0 0 0 0 0 0 0 0 0 0 0 0 0 0 0 0 0 0 0 0 0 0 0 0 0 0
0 0 0 0 0 0 0 0 0 0 0 0 0 0 0 0 0 0 0 0 0 0 0 0 0 0 0 0 0 0 0 0 0 0 0 0 0 0 0 0 0 0 0 0
0 0 0 0 0 0 0 0 0 0 0 0 0 0 0 0 0 0 0 0 0 0 0 0 0 0 0 0 0 0 0 0 0 0 0 0 0 0 0 0 0 0 0 0
0 0 0 0 0 0 0 0 0 0 0 0 0 0 0 0 0 0 0 0 0 0 0 0 0 0 0 0 0 0 0 0 0 0 0 0 0 0 0 0 0 0 0 0
0 0 0 0 0 0 0 0 0 0 0 0 0 0 0 0 0 0 0 0 0 0 0 0 0 0 0 0 0 0 0 0 0 0 0 0 0 0 0 0 0 0 0 0
0 0 0 0 0 0 0 0 0 0 0 0 0 0 0 0 0 0 0 0 0 0 0 0 0 0 0 0 0 0 0 0 0 0 0 0 0 0 0 0 0 0 0 0
0 0 0 0 0 0 0 0 0 0 0 0 0 0 0 0 0 0 0 0 0 0 0 0 0 0 0 0 0 0 0 0 0 0 0 0 0 0 0 0 0 0 0 0
0 0 0 0 0 0 0 0 0 0 0 0 0 0 0 0 0 0 0 0 0 0 0 0 0 0 0 0 0 0 0 0 0 0 0 0 0 0 0 0 0 0 0 0
0 0 0 0 0 0 0 0 0 0 0 0 0 0 0 0 0 0 0 0 0 0 0 0 0 0 0 0 0 0 0 0 0 0 0 0 0 0 0 0 0 0 0 0
0 0 0 0 0 0 0 0 0 0 0 0 0 0 0 0 0 0 0 0 0 0 0 0 0 0 0 0 0 0 0 0 0 0 0 0 0 0 0 0 0 0 0 0
0 0 0 0 0 0 0 0 0 0 0 0 0 0 0 0 0 0 0 0 0 0 0 0 0 0 0 0 0 0 0 0 0 0 0 0 0 0 0 0 0 0 0 0
0 0 0 0 0 0 0 0 0 0 0 0 0 0 0 0 0 0 0 0 0 0 0 0 0 0 0 0 0 0 0 0 0 0 0 0 0 0 0 0 0 0 0 0
0 0 0 0 0 0 0 0 0 0 0 0 0 0 0 0 0 0 0 0 0 0 0 0 0 0 0 0 0 0 0 0 0 0 0 0 0 0 0 0 0 0 0 0
0 0 0 0 0 0 0 0 0 0 0 0 0 0 0 0 0 0 0 0 0 0 0 0 0 0 0 0 0 0 0 0 0 0 0 0 0 0 0 0 0 0 0 0
0 0 0 0 0 0 0 0 0 0 0 0 0 0 0 0 0 0 0 0 0 0 0 0 0 0 0 0 0 0 0 0 0 0 0 0 0 0 0 0 0 0 0 0
0 0 0 0 0 0 0 0 0 0 0 0 0 0 0 0 0 0 0 0 0 0 0 0 0 0 0 0 0 0 0 0 0 0 0 0 0 0 0 0 0 0 0 0
0 0 0 0 0 0 0 0 0 0 0 0 0 0 0 0 0 0 0 0 0 0 0 0 0 0 0 0 0 0 0 0 0 0 0 0 0 0 0 0 0 0 0 0
0 0 0 0 0 0 0 0 0 0 0 0 0 0 0 0 0 0 0 0 0 0 0 0 0 0 0 0 0 0 0 0 0 0 0 0 0 0 0 0 0 0 0 0
0 0 0 0 0 0 0 0 0 0 0 0 0 0 0 0 0 0 0 0 0 0 0 0 0 0 0 0 0 0 0 0 0 0 0 0 0 0 0 0 0 0 0 0
0 0 0 0 0 0 0 0 0 0 0 0 0 0 0 0 0 0 0 0 0 0 0 0 0 0 0 0 0 0 0 0 0 0 0 0 0 0 0 0 0 0 0 0
0 0 0 0 0 0 0 0 0 0 0 0 0 0 0 0 0 0 0 0 0 0 0 0 0 0 0 0 0 0 0 0 0 0 0 0 0 0 0 0 0 0 0 0
0 0 0 0 0 0 0 0 0 0 0 0 0 0 0 0 0 0 0 0 0 0 0 0 0 0 0 0 0 0 0 0 0 0 0 0 0 0 0 0 0 0 0 0
0 0 0 0 0 0 0 0 0 0 0 0 0 0 0 0 0 0 0 0 0 0 0 0 0 0 0 0 0 0 0 0 0 0 0 0 0 0 0 0 0 0 0 0
0 0 0 0 0 0 0 0 0 0 0 0 0 0 0 0 0 0 0 0 0 0 0 0 0 0 0 0 0 0 0 0 0 0 0 0 0 0 0 0 0 0 0 0
Wind_Speed
4 4 3 5 5 6 8 8 8 8 8 11 6 5 5 4 3 3 3 3 3 2 2 2 2 2 2 3 3 3 3 3 4 4 4 3 3 3 3 3 3 3 3 3
3 2 3 5 6 7 8 7 9 9 12 8 5 3 3 4 4 4 4 4 3 3 3 3 3 3 3 3 3 3 2 3 3 3 3 3 3 3 3 3 3 3 3 3
4 4 3 7 8 8 6 6 7 10 11 5 5 5 5 5 5 6 4 4 4 3 3 4 3 3 3 3 3 3 2 3 3 3 3 3 3 3 3 3 3 3 3 3
1 2 6 7 1 4 6 7 7 7 6 5 6 6 5 4 5 5 4 4 4 3 3 3 2 2 2 2 3 3 3 3 3 3 3 3 3 3 3 3 3 3 3 4
2 3 9 7 2 2 4 7 5 7 9 6 5 5 4 3 3 4 4 4 3 3 3 2 2 2 2 2 2 3 3 3 3 3 3 3 3 3 3 3 3 3 3 3
3 2 7 6 1 1 1 6 3 4 6 4 2 3 5 4 3 3 2 2 2 2 2 2 2 1 2 3 3 3 4 4 4 3 3 3 4 3 3 3 3 3 3 3
4 5 10 5 1 2 2 6 4 2 3 2 3 4 5 5 4 3 2 3 2 2 2 2 2 1 2 3 4 4 4 4 4 3 3 4 3 2 2 3 3 3 3 3
4 5 9 2 3 4 5 3 2 3 2 3 5 5 4 4 4 3 3 3 2 2 3 3 2 1 3 4 4 4 3 4 4 4 3 2 2 2 2 2 2 3 3 3
8 8 4 3 4 4 2 3 3 3 3 3 3 4 4 4 4 3 3 3 2 2 3 3 2 2 3 4 4 3 3 4 4 3 3 2 2 2 2 2 2 2 2 2
4 7 5 5 4 3 3 4 4 3 3 2 3 4 4 4 3 3 3 3 2 2 3 4 3 3 4 4 3 3 4 4 3 3 3 3 2 2 2 2 2 3 2 3
5 6 5 4 5 5 4 3 3 3 3 2 2 3 3 3 3 3 3 3 2 2 4 5 4 4 4 3 3 3 4 3 3 3 3 3 3 3 3 3 3 3 3 2
7 6 5 6 4 3 3 4 4 3 3 2 2 3 3 3 3 3 3 3 3 3 4 4 4 4 4 3 2 3 3 3 2 2 2 2 2 3 4 4 5 5 4 4
5 3 4 5 3 2 3 4 4 3 3 3 2 2 2 3 3 2 3 3 3 4 4 4 4 4 4 3 3 3 3 3 2 2 2 2 2 2 3 4 4 4 4 5
4 2 3 3 3 3 3 3 2 2 2 2 2 1 1 2 2 3 3 3 3 3 3 3 4 4 4 3 3 3 3 4 3 2 2 2 2 2 2 2 2 3 4 5
4 4 5 3 2 2 2 1 1 2 2 2 1 1 1 2 3 3 3 3 3 3 3 3 4 5 4 3 3 3 3 2 2 2 2 2 2 2 2 2 2 2 2 3
4 3 3 3 3 2 1 1 2 3 2 2 2 2 2 2 2 3 3 2 2 3 4 4 4 4 3 3 3 3 3 4 3 2 2 2 1 1 1 1 2 2 2 2
3 3 3 4 4 4 3 3 4 4 3 3 3 2 1 1 2 2 3 3 3 3 4 4 4 4 3 3 3 3 2 3 4 3 2 2 1 1 1 1 2 2 2 3
6 6 5 5 5 4 4 3 3 3 3 3 2 1 1 1 2 3 3 3 3 3 4 4 4 3 3 3 3 2 2 2 2 2 2 2 1 1 1 2 2 2 2 2
4 4 4 4 4 4 4 3 3 2 2 1 1 2 2 2 2 2 2 2 3 4 4 4 6 3 3 4 4 2 2 2 2 2 2 2 2 2 1 1 2 2 2 1
3 3 2 2 2 2 3 2 2 2 2 1 1 1 1 2 2 2 2 2 3 3 4 5 4 3 3 3 4 2 2 2 2 2 2 2 2 2 2 2 2 2 2 2
3 2 1 1 1 1 2 2 2 2 2 2 2 2 2 2 2 1 2 3 3 3 4 5 3 3 3 3 3 2 2 2 2 2 2 2 2 2 2 2 2 2 2 2
2 1 1 1 1 1 1 1 2 2 1 1 1 1 1 1 2 2 2 3 3 5 3 2 3 4 4 4 2 2 2 2 2 2 2 2 2 2 2 2 2 2 2 2
2 1 1 1 1 1 1 1 1 2 2 2 2 2 2 2 1 2 3 2 2 5 3 3 5 6 6 2 2 2 2 2 2 2 2 2 2 2 2 2 2 2 2 2
1 1 1 1 1 1 0 1 1 1 1 1 2 2 2 1 2 2 2 4 5 5 3 5 7 6 5 2 2 2 2 2 2 2 2 2 2 2 2 2 2 2 2 2
1 1 1 1 1 1 1 1 0 0 0 1 1 2 1 1 2 2 2 2 4 4 3 5 7 6 3 2 2 2 2 3 3 2 2 2 2 2 2 2 2 2 2 2
1 1 1 2 2 1 1 1 1 1 1 1 1 1 1 1 1 1 2 2 3 4 3 3 3 4 3 2 2 3 2 3 3 3 2 2 2 2 2 2 2 2 2 2
0 1 1 0 0 1 1 1 1 1 1 1 2 1 1 1 1 1 2 2 2 2 2 2 2 2 2 2 2 2 2 2 2 2 2 2 2 2 2 2 2 2 2 2
Wind_Direction
256 270 243 237 234 211 209 211 219 246 254 271 279 278 281 279 280 269 263 258 254 268 284 295 301 295 291 297 305 306 303 302 297 301 303 302 299 300 301 306 307 305 307 307
287 289 267 267 250 229 232 233 244 267 275 270 287 292 288 283 272 266 260 259 270 279 287 289 289 291 297 298 302 304 297 295 302 305 311 310 305 305 308 311 312 313 310 308
269 310 335 272 231 208 222 223 213 240 257 296 305 294 280 271 267 261 264 271 272 272 267 273 279 281 282 293 303 306 303 302 308 307 311 309 310 313 307 304 311 311 305 301
261 14 257 252 215 202 226 250 233 252 283 294 286 293 284 265 257 262 276 277 276 274 278 279 279 285 295 302 305 301 303 306 307 310 309 312 312 307 304 301 301 298 300 299
143 251 278 289 257 178 214 276 232 246 277 300 323 321 296 269 269 266 266 274 278 278 278 287 278 279 295 301 300 294 296 300 299 296 299 304 303 301 302 303 302 298 296 296
149 211 250 259 260 206 114 289 276 245 272 297 351 315 293 321 313 299 301 303 301 308 309 296 290 279 280 286 288 285 289 293 293 287 283 281 282 288 295 297 297 302 303 300
186 232 262 260 239 120 172 267 312 274 269 241 239 252 292 318 322 319 319 313 317 321 308 291 286 281 282 286 280 285 292 293 293 288 282 277 281 283 288 297 305 306 305 302
167 217 255 229 131 188 233 292 301 289 275 252 267 292 302 309 313 321 325 321 326 324 311 305 294 283 284 283 287 294 295 295 293 289 284 287 285 288 290 294 298 297 301 307
195 219 256 199 216 247 270 281 281 276 278 269 278 289 299 303 302 307 307 313 322 315 311 312 303 286 281 290 300 303 300 296 295 294 289 283 273 279 287 280 280 287 288 294
251 264 258 246 255 267 261 265 280 278 276 258 270 283 292 295 301 305 307 310 316 317 312 308 306 295 279 289 301 296 292 292 294 294 294 293 286 279 271 267 269 275 285 289
252 273 294 267 238 254 272 288 296 297 280 263 266 282 281 288 295 299 305 311 309 299 295 297 304 298 295 294 301 297 289 287 292 287 283 288 288 274 274 261 262 269 265 269
227 230 227 262 270 258 254 265 268 281 294 288 253 261 276 278 285 293 298 305 305 299 297 299 304 303 303 301 292 287 290 291 286 284 286 288 294 304 299 292 298 297 294 299
232 245 235 266 284 253 247 261 268 263 262 275 281 263 269 282 291 297 299 300 297 295 298 302 304 304 304 304 298 286 283 288 287 285 285 288 291 295 310 318 313 312 311 312
249 254 265 255 262 277 275 278 280 288 282 272 277 291 289 298 303 299 296 296 298 300 302 303 305 305 306 308 302 295 289 287 287 282 282 280 281 285 283 289 308 314 313 316
243 226 239 267 286 303 306 314 318 298 300 303 295 284 278 285 289 295 304 313 316 310 305 307 307 305 315 315 310 301 292 282 283 283 282 278 279 285 286 286 290 305 321 320
266 265 253 254 262 276 287 268 258 269 275 275 278 278 278 282 292 303 312 320 317 308 308 309 304 305 317 319 313 307 298 294 298 294 291 286 283 283 289 293 296 298 301 304
229 252 246 253 255 256 245 240 239 247 255 257 262 274 294 316 320 319 319 317 306 298 298 300 301 311 319 317 311 306 306 304 307 306 296 293 290 285 285 285 285 288 288 296
226 233 233 235 238 245 253 250 244 243 243 250 257 243 241 254 276 294 307 317 318 315 305 301 305 313 317 316 311 307 306 303 302 303 303 299 303 300 293 291 289 290 298 302
247 244 244 239 233 227 232 239 244 247 249 225 217 231 244 253 265 285 305 312 311 311 312 312 319 329 316 309 315 307 311 311 309 308 302 302 310 303 295 289 291 294 298 301
261 253 249 249 237 216 225 239 240 243 237 211 208 228 261 275 281 291 300 288 275 281 297 310 320 315 307 304 313 311 309 307 308 309 305 297 296 294 291 290 290 289 292 294
265 260 250 241 257 251 226 217 211 227 239 218 209 227 251 275 282 279 285 294 297 301 308 319 327 317 308 309 313 315 311 310 306 303 301 298 295 293 289 289 291 292 292 295
256 243 247 240 233 274 272 233 209 211 220 234 235 227 247 277 290 290 266 260 289 311 325 316 312 310 320 325 322 309 306 305 303 299 295 292 288 288 289 286 281 286 289 290
256 234 234 231 224 255 295 261 206 198 210 222 224 229 241 256 257 266 291 293 302 312 325 305 308 313 326 334 323 313 308 305 301 296 292 287 283 281 281 283 281 280 280 279
249 236 237 227 159 153 252 285 288 247 235 246 239 233 233 269 288 265 270 298 313 321 322 312 322 328 338 344 325 316 310 305 303 300 299 297 293 289 285 287 290 292 288 289
233 212 184 163 177 212 224 230 354 324 317 300 290 279 258 233 245 280 302 303 310 327 326 322 330 339 349 333 324 315 309 304 306 307 295 296 297 298 301 301 300 301 302 299
203 221 228 228 224 213 199 191 213 237 235 289 303 297 303 302 285 288 297 302 308 324 327 320 324 333 335 329 323 319 317 319 325 324 320 316 312 311 312 315 314 306 303 302
226 222 221 261 240 204 195 198 210 231 226 227 263 272 286 301 304 302 303 310 317 321 320 322 324 324 324 324 323 323 322 322 322 323 324 324 322 317 314 311 312 312 310 309